Regional Weather Roundup
Issued by NWS

Home | Current Version | Previous Version | Graphics & Text | Print | Product List | Glossary On
Versions: 1 2 3 4 5 6 7 8 9 10 11 12 13 14 15 16 17 18 19 20 21 22 23 24 25 26 27 28 29 30 31 32 33 34 35 36 37 38 39 40 41 42 43 44 45 46 47 48 49 50
512
ASUS44 KLIX 011010
RWRLA
LOUISIANA WEATHER ROUNDUP
NATIONAL WEATHER SERVICE NEW ORLEANS LA
500 AM CDT WED OCT 01 2014

NOTE: "FAIR" INDICATES FEW OR NO CLOUDS BELOW 12,000 FEET WITH NO
      SIGNIFICANT WEATHER AND/OR OBSTRUCTIONS TO VISIBILITY.
      SKY/WX - SKY CONDITION AND SIGNIFICANT WEATHER.
      TMP - AIR TEMPERATURE.    DP   - DEWPOINT TEMPERATURE.
      RH  - RELATIVE HUMIDITY.  PRES - PRESSURE.
      HX  - HEAT INDEX.         WCI  - WIND CHILL INDEX.

*  THESE STATIONS ARE NOT NWS OR FAA STATIONS AND ARE NOT UNDER
   NWS QUALITY CONTROL.

LAZ040-048-061>063-065-066-069-011100-
SOUTHEAST LOUISIANA

CITY           SKY/WX    TMP DP  RH WIND       PRES   REMARKS
N.O. AUDUBON     N/A     76  75  98 MISG        N/A
N.O. INTL ARPT PTCLDY    75  72  90 E5        29.88R
N.O. LAKEFRONT CLEAR     76  72  87 SE5       29.88S
N.O. DOWNTOWN* FAIR      77  70  78 SE7       29.88S
SLIDELL        CLEAR     68  65  90 CALM      29.88S
BATON ROUGE    CLEAR     72  70  93 NE5       29.88R FOG
BOOTHVILLE     CLEAR     76  74  93 E5        29.88S
BELLE CHASSE   CLEAR     72  68  87 CALM      29.88R
BOGALUSA*      FOG       68  65  90 CALM      29.91S VSB 1/4
GALLIANO*      NOT AVBL
NEW ROADS*     FAIR      73  72  98 E3        29.87S FOG
GONZALES*      FAIR      72  72 100 CALM      29.87S FOG
HAMMOND*       CLEAR     72  68  88 CALM      29.90S
HOUMA*         PTCLDY   N/A N/A N/A CALM      29.86S HAZE
PORT FOURCHON* MOSUNNY   81  75  83 SE10G16   29.89S

$$

LAZ041-044-053-054-011100-
SOUTHWEST LOUISIANA

CITY           SKY/WX    TMP DP  RH WIND       PRES   REMARKS
LAKE CHARLES   LGT RAIN  76  75  97 E5        29.83R FOG
LAFAYETTE      CLOUDY    75  75 100 CALM      29.86R FOG
PATTERSON      CLEAR     73  73 100 E5          N/A
SALT POINT       N/A     78  76  93 CALM      29.85R
NEW IBERIA     CLEAR     76  74  93 E3        29.86R
CHENAULT AIRPK NOT AVBL

$$

LAZ027-028-011100-
CENTRAL LOUISIANA

CITY           SKY/WX    TMP DP  RH WIND       PRES   REMARKS
FORT POLK      CLOUDY    75  73  94 SE6       29.85S
ALEXANDRIA INT MOCLDY    74  72  93 SE5       29.85R
ALEXANDRIA     MOCLDY    72  70  93 CALM      29.87R

$$

LAZ001-002-011100-
NORTHWEST LOUISIANA

CITY           SKY/WX    TMP DP  RH WIND       PRES   REMARKS
SHREVEPORT     PTCLDY    74  70  87 S5        29.84R
BARKSDALE AFB  MOCLDY    73  70  90 SE6       29.85R
DTN SHREVEPORT MOCLDY    75  69  81 S5        29.84R

$$

LAZ014-016-011100-
NORTHEAST LOUISIANA

CITY           SKY/WX    TMP DP  RH WIND       PRES   REMARKS
MONROE         MOCLDY    74  70  87 S7        29.88R
TALLULAH       MOCLDY    74  69  85 SE5       29.89R

$$




USA.gov is the U.S. government's official web portal to all federal, state and local government web resources and services.